Regional Weather Roundup
Issued by NWS Huntsville, AL

Home | Current Version | Previous Version | Text Only | Print | Product List | Glossary On
Versions: 1 2 3 4 5 6 7 8 9 10 11 12 13 14 15 16 17 18 19 20 21 22 23 24 25 26 27
000
ASUS44 KHUN 221910
RWRHUN

WEATHER ROUNDUP FOR THE TENNESSEE VALLEY
NATIONAL WEATHER SERVICE HUNTSVILLE AL
200 PM CDT MON MAY 22 2017

ALZ001>004-222000-
NORTHWEST ALABAMA

CITY           SKY/WX    TMP DP  RH WIND       PRES   REMARKS
COURTLAND HCN    N/A     73 N/A N/A NE6         N/A
RUSSELLVILLE     N/A     73 N/A N/A MISG        N/A
SHOALS AIRPORT PTSUNNY   77  58  51 CALM      30.06F
SHOALS TVA RES   N/A     75 N/A N/A MISG        N/A
$$

ALZ005>007-016-222000-
NORTH CENTRAL ALABAMA

CITY           SKY/WX    TMP DP  RH WIND       PRES   REMARKS
CULLMAN AG STN   N/A     75 N/A N/A CALM        N/A
DECATUR AP     MOSUNNY   77  59  53 NE3       30.05F
HUNTSVILLE AP  PTSUNNY   78  60  53 CALM      30.04F
MERIDIANVILLE  MOSUNNY   75  55  50 CALM      30.05F
REDSTONE ARSN  MOSUNNY   77  61  56 NE6       30.03F
VINEMONT AP    FAIR      76  64  65 NW6       30.07F
$$

ALZ008>010-222000-
NORTHEAST ALABAMA

CITY           SKY/WX    TMP DP  RH WIND       PRES   REMARKS
ALBERTVILLE    CLOUDY    73  70  88 NW6       30.03F
FORT PAYNE       N/A     72  59  64 S3        30.03F
SCOTTSBORO AP  MOSUNNY   77  59  53 NE5       30.04S
SCOTTSBORO HCN   N/A     75 N/A N/A MISG        N/A
VALLEY HEAD      N/A     72 N/A N/A MISG        N/A
$$

TNZ076-096-097-222000-
SOUTHEASTERN MIDDLE TENNESSEE

CITY           SKY/WX    TMP DP  RH WIND       PRES   REMARKS
TULLAHOMA      SUNNY     72  52  49 E6        30.07S
WINCHESTER     MOSUNNY   75  61  60 VRB6      30.05F
$$

...SURROUNDING SITES...

CITY           SKY/WX    TMP DP  RH WIND       PRES   REMARKS
ATLANTA        TSTM      71  70  96 CALM      30.03S FOG
ANNISTON       LGT RAIN  72  71  97 W6        30.02F
BIRMINGHAM     TSTM      73  68  84 CALM      30.04F
CHATTANOOGA    CLOUDY    77  60  55 N8        30.02F
CORINTH        FAIR      73  55  53 NE5       30.05F
DALTON         CLOUDY    72  66  83 NW9       30.03S
GADSDEN        CLOUDY    76  67  73 CALM      30.03F
GOLDEN TRNGL   CLOUDY    73  61  64 NW7       30.00F
HALEYVILLE     FAIR      75  62  64 CALM      30.07F
JACKSON TN     CLOUDY    74  54  49 MISG      30.07F
MEMPHIS        CLOUDY    74  54  49 SE5       30.05F
NASHVILLE      PTSUNNY   74  49  41 VRB5      30.08F
OXFORD MS      FAIR      72  57  60 NE7       30.05F
ROME           CLOUDY    76  66  71 NW5       30.01F
SAVANNAH       SUNNY     73  57  56 VRB5      30.04F
SELMER         SUNNY     72  55  56 NE7       30.05F
TUPELO         CLOUDY    75  58  55 N3        30.04F
TUSCALOOSA     CLOUDY    81  68  64 VRB3      30.00F
$$

...GULF COAST WEATHER...

CITY           SKY/WX    TMP DP  RH WIND       PRES   REMARKS
GULFPORT       CLOUDY    77  69  76 W3        30.00F
PASCAGOULA     CLOUDY    79  68  69 CALM      30.00F
MOBILE         CLOUDY    79  66  64 CALM      30.01F
GULF SHORES    CLOUDY    80  70  71 SE3       30.00F
PENSACOLA      CLOUDY    81  70  69 S6        30.00S
DESTIN         CLOUDY    84  77  79 S8        30.00F HX  94
PANAMA CITY    PTSUNNY   82  74  77 SW9       29.99F
APPALACHICOLA  CLOUDY    81  76  84 S9        30.02R
$$





USA.gov is the U.S. government's official web portal to all federal, state and local government web resources and services.